[[{"header":{"parameterUnit":"m.s-1","parameterCategory":1,"la1":30.2991,"la2":30.254,"lo1":-89.0895,"lo2":-89.0444,"dy":0.0017,"dx":0.0017,"nx":28,"ny":28,"refTime":"2024-02-05T09:00:00:Z","depth":0,"parameterNumber":2,"parameterNumberName":"U-component_of_WINDS"},"data":[0,0,0,0,0,0,0,0,0,0,0,0,0,0,0,0,0,0,0,0,0,0,0,0,0,0,0,0,0,0,0,0,0,0,0,0,0,0,0,0,0,0,0,0,0,0,0,0,0,0,0,0,0,0,0,0,0,0,-0.9606,-0.9606,0,-0.964,-0.964,-0.9641,-0.9591,-0.959,-0.9588,-0.9586,-0.9623,-0.9626,-0.9629,0,0,0,0,0,0,0,0,0,0,0,0,0,-0.9501,-0.9503,-0.9606,-0.9606,-0.9607,-0.964,-0.964,-0.9641,-0.9592,-0.959,-0.9587,-0.9585,-0.9623,-0.9626,-0.9629,0,0,0,0,0,0,0,0,0,0,0,0,0,-0.9542,-0.9504,-0.9606,-0.9586,-0.9585,-0.964,-0.964,-0.9641,-0.9592,-0.9589,-0.9587,-0.9584,-0.9622,-0.9625,-0.9629,-0.9706,0,0,-0.9641,-0.9643,0,0,0,0,0,0,0,0,-0.954,-0.9546,-0.9589,-0.9588,-0.9586,-0.9609,-0.9617,-0.9663,-0.9593,-0.9589,-0.9586,-0.9583,-0.9621,-0.9625,-0.9637,-0.9707,-0.9709,-0.9642,-0.9644,-0.9646,-0.9647,0,0,0,0,0,0,0,-0.9537,-0.9544,-0.9619,-0.9589,-0.9588,-0.9577,-0.9579,-0.9625,-0.9619,-0.9589,-0.9586,-0.9591,-0.962,-0.9633,-0.9637,-0.971,-0.9641,-0.9645,-0.9647,-0.9649,-0.9846,-0.9849,0,0,0,0,0,0,-0.9536,-0.9542,-0.9618,-0.962,-0.9556,-0.9581,-0.9584,-0.9604,-0.9619,-0.9618,-0.9593,-0.9588,-0.9628,-0.9633,-0.9638,-0.973,-0.9646,-0.9649,-0.9652,-0.9843,-0.9847,-0.985,0,0,0,0,0,0,-0.9534,-0.9543,-0.9617,-0.958,-0.9589,-0.9585,-0.9608,-0.9606,-0.9619,-0.9621,-0.962,-0.9608,-0.9626,-0.9633,-0.9689,-0.9731,-0.9651,-0.9655,-0.984,-0.9844,-0.9848,-0.9913,0,0,0,0,0,0,-0.9531,-0.9543,-0.9571,-0.9581,-0.9591,-0.9667,-0.9611,-0.9609,-0.9626,-0.962,-0.9635,-0.9635,-0.9624,-0.9684,-0.9693,-0.9735,-0.9658,-0.9836,-0.9842,-0.9847,-0.9908,-0.9919,-0.993,0,0,0,0,0,-0.9528,-0.9589,-0.9573,-0.9583,-0.9626,-0.9669,-0.9675,-0.9661,-0.963,-0.9659,-0.966,-0.9634,-0.9724,-0.969,-0.97,-0.9743,-0.9833,-0.984,-0.9846,-0.9903,-0.9917,-0.9929,0,0,0,0,0,0,-0.9585,-0.959,-0.9572,-0.9638,-0.9654,-0.9661,-0.9697,-0.9677,-0.9702,-0.9696,-0.9678,-0.9682,-0.9743,-0.9748,-0.971,-0.9819,-0.9774,-0.9783,-0.9813,-0.9827,-0.9838,-0.9836,-0.9661,0,0,0,0,0,-0.9604,-0.9638,-0.9641,-0.9699,-0.9707,-0.9701,-0.9719,-0.9707,-0.9723,-0.9729,-0.9734,-0.9751,-0.9783,-0.9805,-0.9835,-0.9908,-0.9911,-0.9942,-0.9953,-0.9962,-0.9971,-1.0011,-1.0026,-0.9871,-0.9871,-0.9871,0,0,-0.9647,-0.9653,-0.9676,-0.971,-0.9721,-0.9757,-0.9707,-0.9747,-0.9774,-0.9736,-0.979,-0.9794,-0.9812,-0.9877,-0.9906,-0.9884,-1.0014,-0.9971,-0.9978,-0.9981,-1.002,-1.0034,-1.0047,-0.9875,-0.9875,-0.9874,0,0,-0.9742,-0.975,-0.98,-0.9811,-0.9827,-0.9823,-0.9835,-0.9845,-0.9847,-0.99,-0.9872,-0.9904,-0.996,-0.9974,-0.9989,-1.009,-1.0068,-1.01,-1.0158,-1.0197,-1.021,-1.022,-1.0258,-1.0272,-1.0108,-1.0108,-1.0108,0,-0.9793,-0.9845,-0.9828,-0.987,-0.9887,-0.9853,-0.9904,-0.9916,-0.9942,-0.9954,-0.9928,-0.9998,-1.0007,-1.0076,-1.0101,-1.0113,-1.0127,-1.0099,-1.0209,-1.022,-1.023,-1.0265,-1.028,-1.0112,-1.0111,-1.0111,-1.0111,0,-0.9908,-0.9945,-0.9983,-1.0008,-1.0029,-1.0075,-1.0066,-1.0089,-1.0075,-1.0074,-1.013,-1.0139,-1.0171,-1.0186,-1.0173,-1.0254,-1.024,-1.0212,-1.0166,-1.0249,-1.0282,-1.0296,-1.0117,-1.0116,-1.0115,-1.0114,0,0,-1.0041,-1.0055,-1.007,-1.0081,-1.0097,-1.0126,-1.0171,-1.0201,-1.0223,-1.0241,-1.028,-1.0327,-1.0302,-1.0319,-1.0307,-1.0341,-1.0423,-1.0309,-1.0309,-1.0332,-1.0514,-1.0536,-1.0553,-1.0407,-1.041,-1.0412,-1.0513,0,-1.0137,-1.0215,-1.0201,-1.0277,-1.0312,-1.028,-1.032,-1.0334,-1.0334,-1.0364,-1.0364,-1.0399,-1.0362,-1.0372,-1.0404,-1.0406,-1.046,-1.0398,-1.0445,-1.0447,-1.0443,-1.057,-1.0593,-1.0688,-1.0526,-1.0528,-1.053,0,-1.026,-1.0284,-1.0363,-1.0374,-1.0388,-1.0424,-1.0451,-1.048,-1.0496,-1.0494,-1.0512,-1.0494,-1.0541,-1.0493,-1.0558,-1.0516,-1.0534,-1.0538,-1.0542,-1.0547,-1.0495,-1.058,-1.0718,-1.0733,-1.055,-1.0548,-1.0547,0,-1.0352,-1.0403,-1.0457,-1.0468,-1.0481,-1.0508,-1.0515,-1.0528,-1.0547,-1.0571,-1.0584,-1.0613,-1.0629,-1.0653,-1.0643,-1.0609,-1.071,-1.0662,-1.0711,-1.0711,-1.0735,-1.0734,-1.088,-1.0744,-1.0744,-1.0743,-1.0743,0,-1.0462,-1.0513,-1.0499,-1.0533,-1.0589,-1.0572,-1.0628,-1.0631,-1.0643,-1.0678,-1.0652,-1.0685,-1.067,-1.0702,-1.0695,-1.0751,-1.0758,-1.0758,-1.0756,-1.0762,-1.0762,-1.0775,-1.0769,-1.0747,-1.0746,-1.0746,-1.0745,0,-1.0575,-1.0567,-1.0625,-1.0633,-1.0636,-1.0677,-1.0684,-1.0716,-1.0714,-1.0758,-1.0768,-1.0764,-1.0801,-1.0794,-1.0834,-1.0829,-1.09,-1.0888,-1.0894,-1.0892,-1.0943,-1.0939,-1.1103,-1.1125,-1.0973,-1.0974,-1.0976,0,-1.0646,-1.0685,-1.0697,-1.0718,-1.0727,-1.0761,-1.078,-1.0765,-1.0787,-1.0808,-1.0839,-1.0873,-1.09,-1.0961,-1.0962,-1.0994,-1.0984,-1.104,-1.0989,-1.0994,-1.0987,-1.0986,-1.099,-1.105,-1.1052,-1.1053,-1.1055,0,-1.0776,-1.077,-1.0799,-1.0827,-1.0851,-1.0872,-1.0891,-1.091,-1.0897,-1.0923,-1.096,-1.0981,-1.1022,-1.1057,-1.1087,-1.1095,-1.1074,-1.107,-1.1084,-1.1091,-1.1093,-1.1095,-1.0924,-1.1067,-1.1066,-1.1065,-1.1064,-1.1064,-1.0871,-1.0904,-1.0918,-1.0951,-1.0964,-1.0982,-1.1013,-1.1014,-1.1045,-1.1077,-1.1066,-1.1109,-1.1125,-1.1162,-1.1173,-1.1208,-1.1187,-1.1206,-1.1211,-1.1216,-1.1223,-1.1086,-1.1212,-1.1212,-1.1212,-1.1211,-1.1211,0,-1.1,-1.1007,-1.1038,-1.1065,-1.1092,-1.1068,-1.1088,-1.1112,-1.115,-1.1166,-1.1193,-1.1237,-1.1271,-1.1275,-1.1307,-1.1334,-1.1325,-1.1343,-1.1342,-1.1345,-1.1239,-1.1225,-1.135,-1.135,-1.135,-1.135,-1.135,-1.135,-1.1071,-1.1125,-1.1122,-1.1183,-1.119,-1.1231,-1.1245,-1.1262,-1.1275,-1.1325,-1.1353,-1.1355,-1.1367,-1.14,-1.143,-1.1431,-1.1445,-1.1467,-1.1464,-1.1366,-1.1352,-1.1339,-1.1326,-1.147,-1.147,-1.1567,-1.1568,-1.1569]},{"header":{"parameterUnit":"m.s-1","parameterCategory":1,"la1":30.2991,"la2":30.254,"lo1":-89.0895,"lo2":-89.0444,"dy":0.0017,"dx":0.0017,"nx":28,"ny":28,"refTime":"2024-02-05T09:00:00:Z","depth":0,"parameterNumber":3,"parameterNumberName":"V-component_of_WINDS"},"data":[0,0,0,0,0,0,0,0,0,0,0,0,0,0,0,0,0,0,0,0,0,0,0,0,0,0,0,0,0,0,0,0,0,0,0,0,0,0,0,0,0,0,0,0,0,0,0,0,0,0,0,0,0,0,0,0,0,0,-2.6839,-2.684,0,-2.6875,-2.6875,-2.6875,-2.6843,-2.6842,-2.6841,-2.6839,-2.6873,-2.6875,-2.6877,0,0,0,0,0,0,0,0,0,0,0,0,0,-2.6742,-2.6744,-2.6839,-2.684,-2.684,-2.6875,-2.6875,-2.6876,-2.6843,-2.6842,-2.684,-2.6839,-2.6872,-2.6874,-2.6877,0,0,0,0,0,0,0,0,0,0,0,0,0,-2.6781,-2.6744,-2.6839,-2.6828,-2.6828,-2.6874,-2.6875,-2.6876,-2.6844,-2.6842,-2.684,-2.6838,-2.6871,-2.6874,-2.6877,-2.6935,0,0,-2.6887,-2.6888,0,0,0,0,0,0,0,0,-2.6779,-2.6785,-2.683,-2.6829,-2.6829,-2.6853,-2.6853,-2.6896,-2.6844,-2.6838,-2.6839,-2.6837,-2.6867,-2.6871,-2.6881,-2.6937,-2.6938,-2.6887,-2.6889,-2.689,-2.6891,0,0,0,0,0,0,0,-2.6776,-2.6783,-2.6853,-2.683,-2.683,-2.6821,-2.6824,-2.6861,-2.6863,-2.6838,-2.6836,-2.6841,-2.6867,-2.6878,-2.6882,-2.6939,-2.6887,-2.689,-2.6892,-2.6893,-2.7044,-2.7046,0,0,0,0,0,0,-2.6775,-2.6781,-2.6852,-2.6854,-2.6799,-2.6824,-2.6828,-2.6847,-2.6862,-2.6863,-2.6842,-2.6839,-2.6874,-2.6878,-2.6883,-2.6952,-2.689,-2.6893,-2.6895,-2.7042,-2.7044,-2.7047,0,0,0,0,0,0,-2.6773,-2.6782,-2.6851,-2.6817,-2.6825,-2.6828,-2.6849,-2.6849,-2.686,-2.6866,-2.6865,-2.6854,-2.6873,-2.6879,-2.6923,-2.6953,-2.6895,-2.6898,-2.7039,-2.7042,-2.7045,-2.7091,0,0,0,0,0,0,-2.677,-2.6781,-2.6804,-2.6818,-2.6827,-2.6891,-2.6851,-2.6851,-2.6866,-2.6862,-2.6877,-2.6877,-2.6872,-2.6918,-2.6926,-2.6956,-2.69,-2.7036,-2.7041,-2.7044,-2.7087,-2.7095,-2.7103,0,0,0,0,0,-2.6767,-2.6815,-2.6805,-2.6814,-2.6856,-2.6893,-2.6898,-2.6891,-2.6869,-2.6891,-2.6895,-2.6877,-2.6948,-2.6923,-2.6931,-2.6963,-2.7035,-2.7039,-2.7044,-2.7083,-2.7094,-2.7102,0,0,0,0,0,0,-2.6803,-2.6816,-2.6806,-2.686,-2.6876,-2.6887,-2.6915,-2.6903,-2.6924,-2.692,-2.691,-2.6913,-2.696,-2.6966,-2.6937,-2.702,-2.6988,-2.6994,-2.7015,-2.7025,-2.7032,-2.703,-2.6903,0,0,0,0,0,-2.6818,-2.6847,-2.6857,-2.6903,-2.6912,-2.6913,-2.6928,-2.6922,-2.6937,-2.6944,-2.695,-2.6965,-2.6991,-2.7008,-2.7032,-2.7087,-2.709,-2.7113,-2.7121,-2.7128,-2.7133,-2.7163,-2.7173,-2.7062,-2.7062,-2.7062,0,0,-2.6847,-2.6858,-2.6877,-2.6911,-2.6922,-2.6953,-2.6918,-2.6952,-2.6974,-2.6948,-2.6991,-2.6996,-2.7012,-2.7062,-2.7085,-2.7068,-2.7165,-2.7134,-2.7139,-2.7141,-2.7169,-2.718,-2.7189,-2.7065,-2.7065,-2.7064,0,0,-2.6917,-2.6929,-2.6969,-2.6981,-2.6999,-2.6999,-2.7009,-2.7023,-2.7026,-2.7068,-2.705,-2.7076,-2.712,-2.7133,-2.7145,-2.7219,-2.7203,-2.7227,-2.7269,-2.7298,-2.7306,-2.7314,-2.734,-2.735,-2.7233,-2.7233,-2.7233,0,-2.6951,-2.6997,-2.6991,-2.7026,-2.7041,-2.702,-2.7061,-2.7072,-2.7097,-2.7108,-2.7089,-2.7145,-2.7155,-2.7207,-2.7226,-2.7236,-2.7246,-2.7226,-2.7306,-2.7313,-2.732,-2.7346,-2.7356,-2.7236,-2.7236,-2.7235,-2.7235,0,-2.7039,-2.7071,-2.7101,-2.7127,-2.7145,-2.7182,-2.718,-2.72,-2.7192,-2.7194,-2.7237,-2.7248,-2.7273,-2.7285,-2.7278,-2.7337,-2.7327,-2.7307,-2.7275,-2.7334,-2.7357,-2.7367,-2.724,-2.7239,-2.7238,-2.7237,0,0,-2.7132,-2.7154,-2.7165,-2.7176,-2.7195,-2.7219,-2.7255,-2.7282,-2.7298,-2.7316,-2.7346,-2.7384,-2.7367,-2.738,-2.7374,-2.7399,-2.7458,-2.7377,-2.7377,-2.7391,-2.7523,-2.7538,-2.7549,-2.7447,-2.7449,-2.7451,-2.7522,0,-2.7202,-2.7267,-2.7262,-2.7322,-2.7351,-2.7332,-2.7364,-2.7378,-2.7381,-2.7405,-2.7407,-2.7435,-2.741,-2.7418,-2.7442,-2.7445,-2.7484,-2.744,-2.7474,-2.7475,-2.7471,-2.7561,-2.7577,-2.7643,-2.7531,-2.7533,-2.7534,0,-2.7293,-2.7315,-2.7379,-2.7393,-2.7405,-2.7434,-2.7457,-2.7481,-2.7497,-2.7497,-2.7513,-2.7502,-2.7537,-2.7504,-2.7553,-2.7523,-2.7536,-2.754,-2.7543,-2.7545,-2.7508,-2.7566,-2.7665,-2.7675,-2.7548,-2.7547,-2.7546,0,-2.7355,-2.74,-2.7444,-2.7454,-2.7472,-2.7493,-2.7501,-2.7515,-2.7531,-2.7551,-2.7562,-2.7585,-2.7599,-2.7617,-2.7612,-2.7589,-2.7662,-2.7628,-2.7662,-2.7663,-2.7679,-2.7678,-2.778,-2.7688,-2.7688,-2.7687,-2.7687,0,-2.7434,-2.7473,-2.7472,-2.7499,-2.7543,-2.7536,-2.7579,-2.7585,-2.7597,-2.7624,-2.7609,-2.7634,-2.7627,-2.7652,-2.7649,-2.7689,-2.7695,-2.7696,-2.7694,-2.7697,-2.7697,-2.7706,-2.7701,-2.769,-2.7689,-2.7689,-2.7689,0,-2.751,-2.7511,-2.7557,-2.7571,-2.7575,-2.7607,-2.7618,-2.7643,-2.7644,-2.7679,-2.7686,-2.7688,-2.7717,-2.7715,-2.7746,-2.7744,-2.7794,-2.7787,-2.7789,-2.7788,-2.7822,-2.7819,-2.7934,-2.7948,-2.7846,-2.7847,-2.7848,0,-2.756,-2.7591,-2.7608,-2.7625,-2.7635,-2.7664,-2.768,-2.7675,-2.7693,-2.7713,-2.7735,-2.7763,-2.7785,-2.7831,-2.7835,-2.7859,-2.7852,-2.7891,-2.7856,-2.7858,-2.7853,-2.7851,-2.7854,-2.7898,-2.7899,-2.79,-2.7901,0,-2.765,-2.7649,-2.7674,-2.77,-2.7721,-2.774,-2.7758,-2.7773,-2.7769,-2.779,-2.782,-2.7837,-2.787,-2.7897,-2.792,-2.7927,-2.7913,-2.7912,-2.7921,-2.7924,-2.7924,-2.7924,-2.7808,-2.7909,-2.7908,-2.7908,-2.7907,-2.7907,-2.7714,-2.774,-2.7757,-2.7785,-2.7798,-2.7816,-2.784,-2.7845,-2.787,-2.7897,-2.7892,-2.7925,-2.794,-2.797,-2.7979,-2.8004,-2.799,-2.8004,-2.8007,-2.801,-2.8014,-2.792,-2.8009,-2.8008,-2.8008,-2.8008,-2.8008,0,-2.7803,-2.7813,-2.7839,-2.7865,-2.7888,-2.7874,-2.7893,-2.7912,-2.7942,-2.7957,-2.7979,-2.8013,-2.8039,-2.8046,-2.8071,-2.809,-2.8084,-2.8096,-2.8095,-2.8097,-2.8026,-2.8015,-2.8101,-2.8101,-2.8101,-2.8101,-2.8101,-2.8101,-2.7852,-2.7895,-2.7896,-2.7945,-2.7954,-2.7988,-2.8,-2.8015,-2.8027,-2.8066,-2.8089,-2.8093,-2.8104,-2.813,-2.8153,-2.8154,-2.8164,-2.8179,-2.8178,-2.8111,-2.8102,-2.8093,-2.8083,-2.8181,-2.8182,-2.8247,-2.8247,-2.8248]}]]